[[{"header":{"parameterUnit":"m.s-1","parameterCategory":1,"la1":30.2991,"la2":30.254,"lo1":-89.0895,"lo2":-89.0444,"dy":0.0017,"dx":0.0017,"nx":28,"ny":28,"refTime":"2024-03-15T03:00:00:Z","depth":0,"parameterNumber":2,"parameterNumberName":"U-component_of_WINDS"},"data":[0,0,0,0,0,0,0,0,0,0,0,0,0,0,0,0,0,0,0,0,0,0,0,0,0,0,0,0,0,0,0,0,0,0,0,0,0,0,0,0,0,0,0,0,0,0,0,0,0,0,0,0,0,0,0,0,0,0,0.9862,0.9863,0,0.9948,0.9949,0.995,0.9933,0.9931,0.993,0.9928,1.0018,1.0022,1.0026,0,0,0,0,0,0,0,0,0,0,0,0,0,0.9683,0.9686,0.9862,0.9863,0.9864,0.9948,0.9949,0.9951,0.9933,0.9931,0.9929,0.9927,1.0017,1.0022,1.0026,0,0,0,0,0,0,0,0,0,0,0,0,0,0.9764,0.9687,0.9862,0.9865,0.9867,0.9948,0.9949,0.9951,0.9933,0.9931,0.9929,0.9926,1.0015,1.0021,1.0027,1.011,0,0,1.0045,1.0047,0,0,0,0,0,0,0,0,0.9759,0.9771,0.9864,0.9865,0.9867,0.9927,0.9919,1.0004,0.9934,0.9908,0.9928,0.9925,0.999,0.9998,1.0019,1.0114,1.0118,1.0045,1.0049,1.0051,1.0053,0,0,0,0,0,0,0,0.9754,0.9767,0.9896,0.9865,0.9867,0.9863,0.9872,0.9935,0.9961,0.991,0.9909,0.992,0.999,1.0014,1.0021,1.012,1.0045,1.005,1.0054,1.0056,1.0287,1.029,0,0,0,0,0,0,0.9747,0.9762,0.9893,0.9899,0.9806,0.9868,0.9878,0.991,0.9961,0.9966,0.9921,0.9918,1.0005,1.0014,1.0024,1.0125,1.0051,1.0056,1.006,1.0285,1.0288,1.0291,0,0,0,0,0,0,0.9743,0.9759,0.989,0.983,0.9847,0.9874,0.991,0.9913,0.9937,0.9969,0.9974,0.994,1.0003,1.0016,1.0089,1.0128,1.0059,1.0064,1.0282,1.0286,1.0289,1.0328,0,0,0,0,0,0,0.9738,0.9757,0.9789,0.9831,0.985,0.9953,0.9912,0.9917,0.9946,0.9943,0.9988,0.9993,1.0003,1.008,1.0095,1.0135,1.0069,1.0278,1.0284,1.0288,1.0324,1.0333,1.0341,0,0,0,0,0,0.9732,0.9797,0.9791,0.9807,0.989,0.9955,0.9966,0.9975,0.995,0.9982,1.0003,0.9992,1.0121,1.0088,1.0104,1.0147,1.0276,1.0282,1.0288,1.032,1.0331,1.0341,0,0,0,0,0,0,0.976,0.9803,0.9796,0.9877,0.9913,0.9952,0.9993,0.9987,1.003,1.0026,1.0035,1.0045,1.0119,1.014,1.0102,1.023,1.0195,1.0205,1.0214,1.0225,1.0234,1.0228,1.0074,0,0,0,0,0,0.9775,0.9824,0.9859,0.9927,0.9945,0.9966,0.9995,0.9998,1.0036,1.0051,1.0077,1.0114,1.0163,1.0195,1.0242,1.0326,1.0336,1.0363,1.0372,1.0379,1.0388,1.0434,1.0446,1.0311,1.0311,1.031,0,0,0.9808,0.9837,0.9868,0.9933,0.9961,1.0012,0.9979,1.0034,1.0072,1.0059,1.013,1.015,1.0192,1.0271,1.0307,1.029,1.0427,1.0387,1.0392,1.0397,1.0441,1.0454,1.0465,1.0315,1.0314,1.0313,0,0,0.9894,0.9921,0.9981,1.0009,1.0051,1.0065,1.0079,1.012,1.0132,1.0203,1.0194,1.0239,1.0324,1.0354,1.038,1.0476,1.0468,1.0491,1.0538,1.0583,1.0593,1.0603,1.0638,1.065,1.0499,1.0499,1.05,0,0.993,1.0005,1.0012,1.0068,1.0097,1.0087,1.0148,1.0175,1.0231,1.0252,1.0232,1.0337,1.0364,1.045,1.0474,1.0495,1.0512,1.0487,1.0591,1.0601,1.061,1.0643,1.0656,1.0502,1.0502,1.0501,1.0501,0,1.0047,1.01,1.0143,1.0197,1.0231,1.0289,1.0304,1.0338,1.0338,1.0354,1.0426,1.0458,1.0511,1.0531,1.0533,1.0617,1.0606,1.0589,1.0554,1.0625,1.0657,1.0669,1.0506,1.0505,1.0504,1.0503,0,0,1.0154,1.021,1.0226,1.025,1.0296,1.0337,1.0394,1.0446,1.0474,1.0513,1.0562,1.0632,1.0617,1.0646,1.0651,1.069,1.0764,1.0668,1.0669,1.0685,1.086,1.0873,1.0888,1.0758,1.0761,1.0763,1.0857,0,1.0245,1.0346,1.0354,1.0445,1.0494,1.0485,1.0535,1.0568,1.0584,1.0628,1.0645,1.0695,1.0671,1.0688,1.0727,1.0747,1.08,1.074,1.0804,1.0807,1.0795,1.0904,1.0918,1.1005,1.0869,1.0871,1.0872,0,1.0364,1.0406,1.0502,1.054,1.0561,1.0606,1.0654,1.0696,1.0733,1.0742,1.0775,1.0773,1.0833,1.0795,1.0876,1.0836,1.0862,1.0876,1.088,1.0887,1.0844,1.0915,1.1033,1.1047,1.0892,1.089,1.0889,0,1.0433,1.0513,1.0581,1.0602,1.0648,1.068,1.0701,1.0736,1.0767,1.0808,1.0828,1.0876,1.0902,1.0939,1.0951,1.0922,1.1032,1.0996,1.1042,1.1041,1.1066,1.1064,1.1191,1.1082,1.1082,1.1081,1.1081,0,1.0534,1.0593,1.0613,1.0655,1.0721,1.0729,1.0794,1.0813,1.0844,1.089,1.0884,1.0927,1.094,1.0985,1.0994,1.106,1.1072,1.1081,1.1083,1.1082,1.1081,1.11,1.1094,1.1085,1.1084,1.1083,1.1083,0,1.0623,1.0638,1.0711,1.0749,1.076,1.0807,1.0839,1.088,1.0894,1.0952,1.0966,1.0989,1.1041,1.1056,1.112,1.1126,1.1204,1.12,1.1191,1.1191,1.1237,1.1232,1.1381,1.14,1.1278,1.1279,1.128,0,1.0686,1.0732,1.0774,1.0804,1.0826,1.0874,1.0905,1.0914,1.0947,1.0993,1.1027,1.1079,1.1121,1.1206,1.1228,1.1276,1.1274,1.1322,1.1281,1.1279,1.1275,1.1272,1.1277,1.1331,1.1332,1.1333,1.1334,0,1.0798,1.0803,1.0847,1.0894,1.0931,1.0969,1.1005,1.103,1.1044,1.1081,1.1134,1.1167,1.1231,1.1282,1.1331,1.1352,1.1346,1.1346,1.136,1.1359,1.1353,1.1357,1.1213,1.1343,1.1342,1.1342,1.1341,1.1341,1.0876,1.0916,1.0952,1.1002,1.103,1.1063,1.1103,1.1122,1.1167,1.122,1.1222,1.1281,1.1317,1.1381,1.1405,1.1451,1.1436,1.1456,1.146,1.1465,1.1469,1.1345,1.146,1.1459,1.1459,1.1459,1.1459,0,1.0987,1.101,1.1055,1.1106,1.1145,1.1135,1.1174,1.1207,1.1258,1.1292,1.1334,1.1395,1.1445,1.1471,1.152,1.1551,1.155,1.1564,1.1562,1.1567,1.1479,1.1463,1.1565,1.1565,1.1565,1.1565,1.1565,1.1565,1.105,1.1117,1.1126,1.1207,1.1229,1.1286,1.1309,1.134,1.1368,1.1436,1.1477,1.1494,1.1525,1.1576,1.1621,1.1627,1.1646,1.1663,1.1667,1.1584,1.1574,1.1563,1.1548,1.1666,1.1667,1.1752,1.1753,1.1753]},{"header":{"parameterUnit":"m.s-1","parameterCategory":1,"la1":30.2991,"la2":30.254,"lo1":-89.0895,"lo2":-89.0444,"dy":0.0017,"dx":0.0017,"nx":28,"ny":28,"refTime":"2024-03-15T03:00:00:Z","depth":0,"parameterNumber":3,"parameterNumberName":"V-component_of_WINDS"},"data":[0,0,0,0,0,0,0,0,0,0,0,0,0,0,0,0,0,0,0,0,0,0,0,0,0,0,0,0,0,0,0,0,0,0,0,0,0,0,0,0,0,0,0,0,0,0,0,0,0,0,0,0,0,0,0,0,0,0,1.2575,1.2575,0,1.265,1.2651,1.2652,1.2649,1.2648,1.2647,1.2646,1.2723,1.2726,1.2729,0,0,0,0,0,0,0,0,0,0,0,0,0,1.2427,1.243,1.2575,1.2575,1.2576,1.265,1.2651,1.2652,1.265,1.2648,1.2647,1.2646,1.2722,1.2726,1.273,0,0,0,0,0,0,0,0,0,0,0,0,0,1.2496,1.2431,1.2574,1.2584,1.2586,1.265,1.2651,1.2652,1.265,1.2648,1.2647,1.2645,1.2721,1.2726,1.273,1.279,0,0,1.2744,1.2746,0,0,0,0,0,0,0,0,1.2492,1.2501,1.2582,1.2584,1.2585,1.2639,1.2627,1.2698,1.265,1.2626,1.2646,1.2645,1.2696,1.2703,1.2721,1.2793,1.2796,1.2744,1.2747,1.2749,1.275,0,0,0,0,0,0,0,1.2487,1.2498,1.2604,1.2583,1.2585,1.2584,1.2592,1.2641,1.2669,1.2628,1.2628,1.2637,1.2697,1.2716,1.2722,1.2798,1.2744,1.2748,1.2751,1.2753,1.2922,1.2924,0,0,0,0,0,0,1.248,1.2494,1.2602,1.2607,1.2534,1.2588,1.2597,1.2623,1.2668,1.2674,1.2638,1.2636,1.2709,1.2717,1.2725,1.2798,1.2749,1.2753,1.2756,1.292,1.2923,1.2924,0,0,0,0,0,0,1.2477,1.249,1.2599,1.255,1.2564,1.2593,1.2622,1.2626,1.2645,1.2676,1.2681,1.2652,1.2708,1.2719,1.2773,1.28,1.2755,1.2759,1.2918,1.2921,1.2924,1.2943,0,0,0,0,0,0,1.2473,1.2489,1.2512,1.2551,1.2567,1.2647,1.2623,1.2628,1.2653,1.2651,1.2691,1.2696,1.2708,1.2767,1.2778,1.2806,1.2763,1.2916,1.292,1.2923,1.294,1.2946,1.2951,0,0,0,0,0,1.2468,1.2514,1.2513,1.2526,1.2596,1.2648,1.2657,1.267,1.2655,1.2678,1.2698,1.2695,1.2795,1.2772,1.2785,1.2814,1.2914,1.2919,1.2922,1.2938,1.2945,1.2951,0,0,0,0,0,0,1.2478,1.252,1.2519,1.258,1.261,1.2648,1.2677,1.2677,1.2713,1.271,1.2724,1.2733,1.2788,1.2807,1.278,1.2874,1.2853,1.286,1.286,1.2867,1.2872,1.2867,1.2767,0,0,0,0,0,1.2487,1.2526,1.256,1.261,1.2626,1.2649,1.2672,1.2679,1.2712,1.2725,1.2749,1.278,1.2819,1.2844,1.2881,1.2942,1.2951,1.2969,1.2974,1.2979,1.2984,1.3018,1.3026,1.2938,1.2938,1.2938,0,0,1.2507,1.2534,1.2558,1.2613,1.2638,1.2677,1.266,1.2703,1.2732,1.2731,1.2784,1.2803,1.2839,1.2897,1.2924,1.2914,1.3011,1.2984,1.2987,1.299,1.3023,1.3031,1.3039,1.294,1.294,1.2939,0,0,1.2563,1.2588,1.2632,1.2657,1.2695,1.271,1.272,1.2758,1.277,1.2824,1.2824,1.2859,1.2925,1.295,1.2972,1.3037,1.3035,1.3049,1.3078,1.311,1.3117,1.3123,1.3146,1.3154,1.3054,1.3054,1.3054,0,1.2583,1.2642,1.2655,1.2698,1.2722,1.2723,1.2768,1.2792,1.2839,1.2856,1.2844,1.2927,1.2951,1.3015,1.3031,1.3049,1.3061,1.3045,1.3115,1.3121,1.3127,1.315,1.3158,1.3056,1.3056,1.3056,1.3055,0,1.2665,1.2706,1.2737,1.2784,1.2811,1.2855,1.2874,1.29,1.2905,1.2921,1.2975,1.3004,1.3047,1.3063,1.3068,1.3128,1.3121,1.3112,1.3091,1.3137,1.3158,1.3167,1.3058,1.3057,1.3057,1.3057,0,0,1.273,1.2782,1.2793,1.2814,1.2855,1.2888,1.2931,1.2973,1.2996,1.3028,1.3065,1.3121,1.3113,1.3137,1.3145,1.3174,1.3223,1.3161,1.3162,1.3172,1.329,1.3297,1.3307,1.3222,1.3223,1.3225,1.3287,0,1.279,1.2868,1.288,1.2948,1.2987,1.2988,1.3025,1.3055,1.3071,1.3105,1.3122,1.3162,1.3148,1.3163,1.3191,1.3211,1.3247,1.3207,1.3256,1.3258,1.3247,1.3318,1.3325,1.3383,1.3296,1.3297,1.3298,0,1.2871,1.2906,1.2978,1.3014,1.303,1.3064,1.3104,1.3137,1.317,1.3179,1.3206,1.321,1.3255,1.3232,1.3294,1.3266,1.3287,1.3299,1.3302,1.3307,1.3281,1.3325,1.3401,1.341,1.3311,1.331,1.3309,0,1.2912,1.2976,1.3028,1.3046,1.3089,1.3112,1.3131,1.3163,1.3187,1.3221,1.3237,1.3276,1.3298,1.3327,1.3342,1.3324,1.3403,1.3381,1.3412,1.3411,1.3428,1.3427,1.3509,1.3442,1.3441,1.3441,1.3441,0,1.2978,1.3022,1.3047,1.3078,1.3127,1.3141,1.3189,1.3207,1.3235,1.327,1.3273,1.3305,1.3322,1.3357,1.3369,1.3418,1.3428,1.3436,1.3439,1.3436,1.3435,1.345,1.3447,1.3444,1.3443,1.3443,1.3442,0,1.3032,1.305,1.3106,1.3142,1.3152,1.3186,1.3217,1.3248,1.3263,1.3307,1.3318,1.3343,1.3384,1.3401,1.3452,1.3459,1.3516,1.3515,1.3505,1.3506,1.3536,1.3533,1.3631,1.3644,1.3567,1.3568,1.3569,0,1.3073,1.3107,1.3146,1.317,1.319,1.3228,1.3253,1.3267,1.3293,1.3332,1.3358,1.3399,1.3433,1.3499,1.3521,1.356,1.356,1.3592,1.3566,1.3562,1.3561,1.3559,1.3562,1.3597,1.3597,1.3598,1.3599,0,1.3144,1.3152,1.3187,1.3227,1.3256,1.3288,1.3318,1.3337,1.3356,1.3385,1.3428,1.3454,1.3505,1.3546,1.3586,1.3605,1.3605,1.3606,1.3616,1.3614,1.3606,1.3611,1.3518,1.3604,1.3604,1.3603,1.3603,1.3603,1.3193,1.3223,1.3256,1.3296,1.332,1.3348,1.3379,1.3398,1.3434,1.3477,1.3483,1.3528,1.356,1.3613,1.3634,1.3669,1.3661,1.3674,1.3678,1.3681,1.3683,1.36,1.3676,1.3676,1.3676,1.3676,1.3676,0,1.3265,1.3286,1.3322,1.3365,1.3396,1.3393,1.3427,1.3453,1.3493,1.3522,1.3556,1.3604,1.3643,1.3668,1.3708,1.3731,1.3732,1.3741,1.374,1.3744,1.3688,1.3676,1.374,1.374,1.374,1.374,1.374,1.374,1.3306,1.3357,1.3368,1.343,1.345,1.3495,1.3514,1.354,1.3564,1.3618,1.3651,1.3667,1.3694,1.3736,1.3772,1.3778,1.3793,1.3802,1.3808,1.3755,1.3748,1.3742,1.3731,1.3805,1.3805,1.3861,1.3862,1.3862]}]]